Regional Weather Roundup
Issued by NWS Little Rock, AR

Home | Current Version | Previous Version | Text Only | Print | Product List | Glossary On
Versions: 1 2 3 4 5 6 7 8 9 10 11 12 13 14 15 16 17 18 19 20 21 22 23 24 25 26 27 28 29 30 31 32 33 34 35 36 37 38 39 40 41 42 43 44 45 46 47 48 49 50
801
ASUS44 KLZK 242005
RWRLZK

WEATHER ROUNDUP FOR ARKANSAS
NATIONAL WEATHER SERVICE LITTLE ROCK AR
200 PM CST FRI NOV 24 2017

NOTE: "FAIR" INDICATES FEW OR NO CLOUDS BELOW 12,000 FEET WITH NO
SIGNIFICANT WEATHER AND/OR OBSTRUCTIONS TO VISIBILITY.

ARZ001-003-010-029-242100-
NORTHWEST ARKANSAS

CITY           SKY/WX    TMP DP  RH WIND       PRES   REMARKS
FAYETTEVILLE   SUNNY     70  33  25 S17       29.79F
FORT SMITH     SUNNY     73  35  25 SW12      29.80F
HARRISON       SUNNY     74  31  20 SW16G22   29.77F
BENTONVILLE    SUNNY     69  34  27 SW15G24   29.79F
ROGERS         SUNNY     70  35  27 S13G23      N/A
SILOAM SPGS    SUNNY     70  35  27 S15       29.78F
HIGHFILL       SUNNY     69  34  27 SW17      29.77F
SPRINGDALE     SUNNY     70  32  24 SW17G24   29.79F
$$

ARZ004-005-016-242100-
NORTH CENTRAL ARKANSAS

CITY           SKY/WX    TMP DP  RH WIND       PRES   REMARKS
BATESVILLE     SUNNY     69  34  27 S9        29.83F
FLIPPIN        SUNNY     74  35  24 S9G17     29.77F
MTN HOME       SUNNY     73  34  23 SW13      29.77F
$$

ARZ040-041-242100-
WEST CENTRAL ARKANSAS

CITY           SKY/WX    TMP DP  RH WIND       PRES   REMARKS
MENA           SUNNY     72  32  23 SW8G16    29.85F
$$

ARZ009-017-025-026-028-242100-
NORTHEAST ARKANSAS

CITY           SKY/WX    TMP DP  RH WIND       PRES   REMARKS
CORNING        FAIR      64  39  39 SW20G28   29.82F
JONESBORO      SUNNY     64  38  38 S14       29.86F
NEWPORT        SUNNY     67  34  29 S20G25    29.84F
WALNUT RIDGE     N/A     64  35  34 S20G25    29.83F
BLYTHEVILLE    SUNNY     62  37  39 S14       29.87F
$$

ARZ022-023-033-042-044-242100-
CENTRAL ARKANSAS

CITY           SKY/WX    TMP DP  RH WIND       PRES   REMARKS
LITTLE ROCK    PTSUNNY   69  31  24 SW17G23   29.87F
N LITTLE ROCK    N/A     68  35  30 SW6       29.89F
JACKSONVILLE   SUNNY     67  34  29 S12G18    29.86F
SEARCY         SUNNY     68  35  29 S10       29.87F
HOT SPRINGS    MOSUNNY   69  33  26 SW9G16    29.87F
RUSSELLVILLE   SUNNY     70  33  25 SW5       29.83F
CLINTON        FAIR      68  34  28 S9G18     29.84F
$$

ARZ036-242100-
EAST ARKANSAS

CITY           SKY/WX    TMP DP  RH WIND       PRES   REMARKS
WEST MEMPHIS   MOSUNNY   61  36  39 S10       29.89F
$$

ARZ050-053-066-070-073-242100-
SOUTHWEST ARKANSAS

CITY           SKY/WX    TMP DP  RH WIND       PRES   REMARKS
ARKADELPHIA    FAIR      68  35  29 S10       29.89F
CAMDEN         SUNNY     72  32  23 SW8       29.90F
TEXARKANA      SUNNY     69  34  27 S10       29.90F
EL DORADO      SUNNY     68  36  30 S9        29.93F
DE QUEEN       SUNNY     71  36  27 S10       29.85F
$$

ARZ056-057-069-242100-
SOUTHEAST ARKANSAS

CITY           SKY/WX    TMP DP  RH WIND       PRES   REMARKS
PINE BLUFF     SUNNY     67  33  28 S12       29.90F
STUTTGART      SUNNY     65  33  30 SW12      29.89F
MONTICELLO     SUNNY     66  33  29 SW7       29.92F

$$






USA.gov is the U.S. government's official web portal to all federal, state and local government web resources and services.